CW4482 Weather Reports


time (UTC)temp
C
wind
direction
speed
KPH
gust
KPH
rain 1hr
cm
rain 24hr
cm
rain mn
cm
humidity
%
barometer
mb
20260502220021 25 33 3.2 11.3 0.00 1.37 0.00 48 1017.8
20260502214521 25 41 4.8 16.1 0.00 1.98 0.00 57 1018.0
20260502213021 25 18 3.2 9.7 0.00 1.98 0.00 55 1017.9
20260502211525 25 38 4.8 12.9 0.00 1.98 0.00 47 1018.0
20260502210015 25 332 8.0 20.9 0.00 1.98 0.00 46 1018.1
20260502204513 25 347 4.8 16.1 0.00 2.51 0.00 46 1018.2
20260502203013 25 23 4.8 16.1 0.00 2.51 0.00 50 1018.4
20260502201513 24 294 3.2 16.1 0.00 2.51 0.00 58 1018.4
20260502200013 24 36 4.8 16.1 0.00 2.51 0.00 58 1018.6
20260502194511 23 343 3.2 17.7 0.00 3.10 0.00 50 1018.8
20260502193036 23 24 4.8 14.5 0.00 3.10 0.00 53 1019.1
20260502191514 23 22 4.8 14.5 0.00 3.10 0.00 57 1019.1
20260502190011 23 298 3.2 16.1 0.00 3.10 0.00 55 1019.2
20260502184514 22 332 6.4 19.3 0.00 4.78 0.00 52 1019.4
20260502181527 22 44 3.2 14.5 0.00 4.78 0.00 63 1019.7
20260502163015 19 11 6.4 17.7 0.00 5.56 0.00 71 1020.2
20260502161528 18 34 6.4 19.3 0.00 5.56 0.00 70 1020.1
20260502151527 16 318 3.2 16.1 0.00 5.56 0.00 80 1019.9
20260502123013 11 336 0.0 3.2 0.00 5.99 0.00 94 1018.3
20260502121521 11 336 0.0 3.2 0.00 5.99 0.00 94 1018.3
20260502114524 11 336 0.0 3.2 0.00 6.02 0.00 94 1017.8
20260502113029 11 343 1.6 4.8 0.00 6.02 0.00 94 1017.7
20260502111551 11 344 1.6 4.8 0.00 6.02 0.00 94 1017.5
20260502110024 11 342 1.6 4.8 0.00 6.02 0.00 94 1017.5
20260502104524 11 360 1.6 4.8 0.00 6.48 0.00 93 1017.3
20260502103015 11 360 1.6 4.8 0.00 6.48 0.00 94 1017.1
20260502101512 11 355 1.6 4.8 0.00 6.48 0.00 94 1016.7
20260502071516 12 49 3.2 9.7 0.00 8.74 0.00 95 1015.7
20260502070036 12 20 1.6 9.7 0.00 8.74 0.00 95 1015.7
20260502064515 12 17 1.6 16.1 0.00 8.92 0.00 95 1015.3
20260502063017 12 339 1.6 16.1 0.00 8.92 0.00 95 1015.4
20260502061515 12 355 3.2 8.0 0.00 8.92 0.00 95 1015.2
20260502060012 12 14 3.2 9.7 0.00 8.92 0.00 95 1015.3
20260502054511 12 51 3.2 22.5 0.00 9.86 0.00 95 1015.3
20260502053012 13 355 3.2 17.7 0.00 9.86 0.00 95 1015.5
20260502051513 13 28 3.2 14.5 0.00 9.86 0.00 95 1015.4
20260502050034 13 26 3.2 20.9 0.00 9.86 0.00 95 1015.5
20260502044534 13 320 3.2 9.7 0.00 9.86 9.86 95 1015.4
20260502043038 13 38 3.2 16.1 0.00 9.86 9.86 95 1015.3
20260502041514 13 355 3.2 14.5 0.05 9.86 9.86 95 1015.5
20260502040015 13 82 1.6 8.0 0.05 9.86 9.86 95 1015.2
20260502034512 13 34 3.2 9.7 0.05 9.88 9.86 95 1015.1
20260502033011 13 30 3.2 14.5 0.10 9.88 9.86 95 1014.7
20260502031530 13 22 8.0 17.7 0.05 9.83 9.80 95 1014.3
20260502030047 13 14 3.2 16.1 0.08 9.83 9.80 95 1014.0
20260502024527 13 335 3.2 9.7 0.08 9.88 9.80 95 1013.9
20260502023024 13 19 3.2 9.7 0.05 9.83 9.75 95 1013.9
20260502021524 13 348 3.2 8.0 0.10 9.83 9.75 95 1014.0
20260502020012 13 346 3.2 11.3 0.13 9.80 9.73 95 1013.4
20260502014558 13 54 3.2 19.3 0.23 9.80 9.73 95 1012.9
20260502013033 14 5 3.2 16.1 0.28 9.78 9.70 95 1012.8
20260502011512 14 309 3.2 14.5 0.36 9.70 9.63 96 1012.9
20260502010012 15 346 4.8 14.5 0.41 9.68 9.60 95 1011.7
20260502004514 15 5 1.6 8.0 0.36 9.58 9.50 95 1011.6
20260502003014 15 360 3.2 11.3 0.43 9.50 9.42 96 1011.4
20260502001522 15 53 1.6 12.9 0.51 9.35 9.27 96 1011.9
20260502000015 15 43 4.8 22.5 0.43 9.27 9.19 96 1010.4
20260501234512 15 23 4.8 16.1 0.38 9.22 9.14 95 1011.3
20260501233033 15 33 3.2 12.9 0.23 9.04 8.97 95 1011.5
20260501231533 15 337 3.2 16.1 0.10 8.84 8.76 95 1011.6
20260501230019 15 44 4.8 19.3 0.23 8.84 8.76 95 1010.1
20260501224514 15 27 1.6 22.5 0.43 8.84 8.76 96 1010.7
20260501223013 16 38 3.2 12.9 0.58 8.79 8.71 96 1010.7
20260501221534 16 67 3.2 12.9 0.64 8.71 8.64 96 1010.6